Visibility
15.0 15.0 13.0 10.5 14.6 13.1 12.8 10.4 15.0 15.0 15.0 15.0 15.0 15.0 15.0 15.0 15.0 6.1 10.2 10.2 6.5 15.0 15.0 15.0 15.0 15.0 3.5 8.9 2.7 9.9 0.6 3.9 0.2 0.2 0.2 6.3 15.0 15.0 15.0 15.0 15.0 15.0 15.0 15.0 15.0 2.2 15.0 15.0 15.0 15.0 15.0 15.0 15.0 15.0
15.0 9.8 14.3 14.7 13.4 13.3 14.7 14.8 15.0 13.4 15.0 15.0 15.0 15.0 15.0 15.0 14.6 14.6 0.1 3.9 15.0 14.1 15.0 15.0 15.0 15.0 15.0 14.8 11.8 15.0 9.4 15.0 15.0 15.0 8.5 15.0 15.0 15.0 15.0 15.0 15.0 15.0 15.0 15.0 14.9 15.0 15.0 15.0 15.0 15.0 15.0 15.0 15.0 15.0
15.0 15.0 10.5 15.0 15.0 11.9 15.0 15.0 15.0 15.0 15.0 15.0 15.0 15.0 15.0 15.0 15.0 9.2 0.9 0.3 14.2 8.0 12.7 12.6 15.0 15.0 15.0 15.0 13.9 6.4 12.7 11.8 15.0 15.0 15.0 15.0 15.0 15.0 3.5 15.0 15.0 15.0 15.0 15.0 15.0 15.0 15.0 15.0 15.0 15.0 15.0 15.0 15.0 15.0
15.0 15.0 15.0 11.1 13.7 13.2 15.0 9.6 13.8 15.0 15.0 15.0 15.0 15.0 15.0 15.0 15.0 15.0 0.4 11.0 12.4 7.2 6.6 15.0 15.0 15.0 15.0 15.0 9.1 6.8 6.4 8.4 1.6 9.6 15.0 15.0 15.0 15.0 15.0 15.0 15.0 15.0 15.0 15.0 15.0 15.0 15.0 15.0 15.0 15.0 15.0 15.0 15.0 15.0
15.0 15.0 14.4 15.0 15.0 15.0 13.4 15.0 15.0 15.0 15.0 15.0 15.0 15.0 14.8 15.0 15.0 15.0 15.0 15.0 15.0 1.0 0.1 15.0 15.0 15.0 15.0 15.0 10.8 7.9 2.6 2.0 1.6 0.1 0.4 13.6 15.0 15.0 15.0 15.0 15.0 15.0 15.0 15.0 15.0 15.0 15.0 15.0 15.0 15.0 15.0 15.0 15.0 15.0
15.0 15.0 15.0 15.0 15.0 12.6 15.0 15.0 15.0 15.0 15.0 15.0 15.0 15.0 15.0 15.0 15.0 15.0 0.1 3.9 15.0 15.0 14.7 0.7 15.0 15.0 15.0 15.0 15.0 11.6 11.0 10.7 1.2 1.0 15.0 14.6 15.0 15.0 15.0 15.0 15.0 15.0 15.0 15.0 15.0 15.0 15.0 15.0 15.0 15.0 15.0 15.0 15.0 15.0
15.0 15.0 15.0 15.0 15.0 15.0 15.0 15.0 15.0 15.0 15.0 15.0 15.0 15.0 15.0 15.0 15.0 0.3 0.1 1.5 14.4 15.0 0.1 0.0 2.6 15.0 15.0 15.0 15.0 15.0 15.0 8.8 0.2 6.5 6.4 13.7 15.0 15.0 15.0 15.0 15.0 15.0 15.0 15.0 15.0 15.0 15.0 15.0 15.0 15.0 15.0 15.0 15.0 15.0
15.0 15.0 15.0 15.0 15.0 15.0 15.0 15.0 15.0 15.0 15.0 15.0 15.0 15.0 15.0 15.0 15.0 0.1 15.0 15.0 15.0 15.0 5.7 0.0 0.0 7.6 15.0 15.0 8.5 15.0 15.0 9.3 13.4 15.0 15.0 15.0 15.0 15.0 15.0 15.0 15.0 15.0 15.0 15.0 15.0 15.0 15.0 15.0 15.0 15.0 15.0 15.0 15.0 15.0
15.0 15.0 15.0 15.0 15.0 15.0 15.0 15.0 15.0 15.0 15.0 15.0 15.0 15.0 15.0 3.7 0.1 0.5 15.0 15.0 15.0 15.0 0.0 0.0 0.1 1.4 15.0 15.0 15.0 15.0 12.1 1.6 14.6 15.0 15.0 8.2 15.0 15.0 15.0 15.0 15.0 15.0 15.0 15.0 15.0 15.0 15.0 15.0 15.0 15.0 15.0 15.0 15.0 15.0
15.0 15.0 15.0 15.0 15.0 15.0 15.0 15.0 15.0 15.0 15.0 15.0 15.0 0.1 0.1 0.1 8.9 1.0 0.1 0.1 0.0 0.2 15.0 1.3 15.0 0.2 14.9 15.0 0.8 14.1 14.8 0.1 0.1 14.6 15.0 13.9 5.5 15.0 15.0 15.0 15.0 15.0 15.0 15.0 15.0 15.0 15.0 15.0 15.0 15.0 15.0 15.0 15.0 15.0
15.0 15.0 15.0 15.0 15.0 15.0 15.0 15.0 15.0 15.0 15.0 7.7 0.0 0.0 4.9 13.7 0.1 3.8 0.1 0.1 0.1 0.1 0.4 7.2 15.0 0.8 15.0 9.5 15.0 15.0 0.2 0.1 0.5 15.0 15.0 15.0 9.9 15.0 15.0 15.0 15.0 15.0 15.0 15.0 15.0 15.0 15.0 15.0 15.0 15.0 15.0 15.0 15.0 15.0
15.0 15.0 15.0 15.0 15.0 15.0 15.0 15.0 15.0 15.0 15.0 6.5 4.1 0.1 0.1 0.2 0.1 0.1 0.1 0.0 0.3 0.8 0.3 0.1 6.9 15.0 15.0 15.0 15.0 1.7 4.5 10.3 15.0 15.0 9.1 4.7 15.0 15.0 15.0 15.0 15.0 15.0 15.0 15.0 15.0 15.0 15.0 15.0 15.0 15.0 15.0 15.0 15.0 15.0
15.0 15.0 15.0 15.0 15.0 15.0 15.0 15.0 15.0 15.0 15.0 0.2 0.0 0.0 0.0 0.1 0.0 0.1 0.0 0.2 0.1 0.1 0.0 0.1 0.1 0.1 7.3 9.4 15.0 15.0 15.0 12.6 15.0 2.2 5.1 14.3 15.0 15.0 15.0 15.0 15.0 15.0 15.0 15.0 15.0 15.0 15.0 15.0 15.0 15.0 15.0 15.0 15.0 15.0
15.0 15.0 15.0 15.0 15.0 15.0 15.0 15.0 15.0 15.0 0.0 0.0 0.0 0.1 0.1 0.0 0.0 15.0 15.0 15.0 15.0 0.2 2.4 15.0 15.0 15.0 15.0 15.0 15.0 3.3 15.0 14.0 1.0 0.4 15.0 15.0 15.0 15.0 15.0 15.0 15.0 15.0 15.0 15.0 15.0 15.0 15.0 15.0 15.0 15.0 15.0 15.0 15.0 15.0
15.0 15.0 15.0 15.0 15.0 15.0 15.0 15.0 15.0 15.0 0.0 0.0 0.0 0.1 0.0 0.0 0.1 14.3 0.4 0.8 9.4 14.7 15.0 15.0 15.0 15.0 15.0 7.8 12.3 8.9 0.1 0.1 15.0 15.0 15.0 15.0 15.0 14.6 15.0 15.0 15.0 15.0 15.0 15.0 15.0 15.0 15.0 15.0 15.0 15.0 15.0 15.0 15.0 15.0
15.0 15.0 15.0 15.0 15.0 15.0 15.0 15.0 0.5 0.2 0.0 0.0 0.1 0.1 0.0 0.1 2.1 4.3 10.8 15.0 0.5 14.6 15.0 15.0 15.0 15.0 15.0 15.0 0.1 14.2 13.0 12.5 15.0 15.0 15.0 10.1 15.0 15.0 15.0 15.0 15.0 15.0 15.0 15.0 15.0 15.0 15.0 15.0 15.0 15.0 15.0 15.0 15.0 15.0
15.0 15.0 15.0 15.0 15.0 15.0 15.0 0.1 0.7 0.0 0.0 0.3 0.1 0.2 0.2 0.1 0.5 0.2 15.0 15.0 15.0 15.0 15.0 15.0 15.0 15.0 15.0 5.5 15.0 15.0 15.0 15.0 15.0 14.3 6.6 10.1 15.0 15.0 15.0 15.0 15.0 15.0 15.0 15.0 15.0 15.0 15.0 15.0 15.0 15.0 15.0 15.0 15.0 15.0
15.0 15.0 15.0 15.0 15.0 15.0 15.0 0.1 6.0 0.6 1.3 1.2 0.2 0.8 7.0 2.0 0.1 0.1 15.0 15.0 5.0 15.0 15.0 15.0 15.0 2.8 15.0 15.0 15.0 15.0 15.0 12.3 6.0 7.7 10.3 15.0 15.0 15.0 15.0 15.0 15.0 15.0 15.0 15.0 15.0 15.0 15.0 15.0 15.0 15.0 15.0 15.0 15.0 15.0
15.0 15.0 15.0 15.0 15.0 15.0 15.0 15.0 12.2 0.2 3.0 11.8 12.8 15.0 15.0 15.0 0.0 0.5 15.0 15.0 15.0 15.0 15.0 15.0 15.0 15.0 15.0 15.0 15.0 14.7 3.5 9.1 13.8 3.7 15.0 15.0 15.0 15.0 15.0 15.0 15.0 15.0 15.0 15.0 15.0 15.0 15.0 15.0 15.0 15.0 15.0 15.0 15.0 15.0
15.0 15.0 15.0 15.0 15.0 15.0 0.5 12.3 15.0 5.2 0.1 12.6 5.0 5.4 11.7 15.0 0.1 0.0 0.0 15.0 15.0 15.0 4.4 9.8 15.0 15.0 15.0 15.0 15.0 15.0 15.0 15.0 15.0 15.0 15.0 15.0 15.0 15.0 15.0 15.0 15.0 15.0 15.0 15.0 15.0 15.0 15.0 15.0 15.0 15.0 15.0 15.0 15.0 15.0
15.0 15.0 15.0 15.0 15.0 15.0 10.4 2.5 0.3 0.2 1.6 0.2 5.1 0.3 2.0 0.0 0.0 0.0 0.0 0.1 0.0 0.0 0.1 1.9 15.0 15.0 15.0 15.0 15.0 15.0 15.0 15.0 15.0 15.0 15.0 9.7 15.0 15.0 15.0 15.0 15.0 15.0 15.0 15.0 15.0 15.0 15.0 15.0 15.0 15.0 15.0 15.0 15.0 15.0
15.0 15.0 15.0 15.0 15.0 15.0 8.1 10.8 0.4 3.0 9.4 2.1 4.9 1.5 1.1 4.5 0.5 0.1 0.1 0.0 0.1 0.1 0.2 0.2 2.7 15.0 15.0 15.0 15.0 15.0 15.0 15.0 15.0 15.0 15.0 15.0 15.0 15.0 15.0 15.0 15.0 15.0 15.0 15.0 15.0 15.0 15.0 15.0 15.0 15.0 15.0 15.0 15.0 15.0
15.0 15.0 15.0 15.0 15.0 15.0 15.0 11.4 10.1 2.2 2.1 2.7 8.5 8.3 0.8 3.1 0.1 0.1 0.1 0.1 0.1 0.2 0.1 0.2 0.7 15.0 15.0 15.0 15.0 15.0 15.0 15.0 15.0 15.0 15.0 15.0 15.0 15.0 15.0 15.0 15.0 15.0 15.0 15.0 15.0 15.0 15.0 15.0 15.0 15.0 15.0 15.0 15.0 15.0
15.0 15.0 15.0 14.3 14.5 15.0 15.0 15.0 13.6 1.9 12.5 12.1 4.1 7.0 7.1 1.0 1.5 0.1 0.1 0.2 0.1 0.2 0.3 0.2 0.6 4.3 15.0 15.0 15.0 15.0 15.0 15.0 15.0 15.0 15.0 15.0 15.0 15.0 15.0 15.0 15.0 15.0 15.0 15.0 15.0 15.0 15.0 15.0 15.0 15.0 15.0 15.0 15.0 15.0
15.0 15.0 15.0 15.0 15.0 15.0 14.4 14.3 4.6 14.4 4.0 4.1 1.7 8.6 2.1 1.6 0.3 0.2 0.1 0.1 0.1 0.1 0.1 0.1 0.1 0.1 0.1 0.5 6.0 4.5 15.0 15.0 15.0 15.0 15.0 15.0 15.0 15.0 15.0 15.0 15.0 15.0 15.0 15.0 15.0 15.0 15.0 15.0 15.0 15.0 15.0 15.0 15.0 15.0
15.0 15.0 15.0 15.0 15.0 15.0 15.0 15.0 5.0 8.9 3.1 2.4 6.4 8.0 4.1 0.3 1.0 1.5 0.9 0.1 0.1 0.1 0.1 0.1 0.1 0.1 0.1 0.1 0.1 0.1 0.1 2.2 15.0 14.6 10.8 15.0 15.0 15.0 15.0 15.0 13.9 13.9 15.0 15.0 15.0 15.0 15.0 15.0 15.0 15.0 15.0 15.0 15.0 15.0
15.0 15.0 12.3 15.0 15.0 12.7 12.2 9.3 15.0 4.5 3.4 3.2 4.7 3.7 2.9 0.3 0.4 2.3 4.0 2.0 0.2 0.1 0.1 0.1 0.1 0.1 0.1 0.1 0.1 0.1 0.1 0.4 15.0 7.8 0.4 0.1 0.1 0.6 4.6 7.7 4.0 12.5 15.0 15.0 15.0 15.0 15.0 15.0 15.0 15.0 15.0 15.0 15.0 15.0
15.0 15.0 15.0 5.1 5.1 3.8 15.0 4.6 4.3 6.5 6.4 7.2 10.1 3.1 3.9 0.3 0.6 14.8 4.2 7.7 13.1 0.8 0.1 0.1 0.1 0.1 0.1 0.1 0.1 0.1 0.1 0.1 0.1 0.1 0.1 0.1 0.1 0.1 0.3 7.8 15.0 15.0 15.0 15.0 15.0 15.0 15.0 15.0 15.0 15.0 15.0 15.0 15.0 15.0
4.8 13.4 15.0 3.5 3.0 3.1 4.1 15.0 15.0 7.6 9.2 4.3 4.7 4.2 9.7 14.8 7.1 4.1 14.9 5.4 10.8 1.4 0.4 0.1 0.1 0.1 0.1 0.1 0.1 0.1 0.1 0.1 0.1 0.1 0.1 0.1 0.1 0.1 14.1 15.0 13.1 1.1 2.6 7.7 15.0 15.0 15.0 15.0 15.0 15.0 15.0 15.0 15.0 15.0
4.4 8.8 5.8 1.5 14.1 15.0 12.2 4.0 2.8 2.6 7.4 14.6 13.2 7.7 6.8 7.0 11.3 5.1 3.0 3.4 3.0 2.7 0.5 0.1 0.1 0.2 0.1 0.1 0.1 0.1 0.1 0.1 0.1 0.3 0.4 1.4 4.5 1.2 0.5 0.1 0.1 0.5 12.5 15.0 15.0 15.0 15.0 15.0 15.0 15.0 15.0 15.0 15.0 15.0
1.6 2.7 5.2 6.2 13.5 5.0 1.5 1.1 1.0 2.7 2.6 3.1 1.4 2.0 12.9 7.4 13.1 4.1 3.2 1.7 1.2 0.8 0.6 0.2 0.1 0.1 0.1 0.1 0.1 0.1 0.1 0.1 0.1 0.1 1.4 1.0 0.4 0.1 0.1 0.1 1.8 15.0 15.0 15.0 15.0 15.0 15.0 15.0 15.0 15.0 15.0 15.0 15.0 15.0
0.8 2.4 7.2 5.8 2.8 1.0 0.8 1.2 1.3 1.7 1.3 1.9 8.2 1.2 5.6 3.2 3.5 5.8 4.7 2.0 0.4 0.2 0.1 0.1 0.1 0.1 0.1 0.1 0.1 0.1 0.1 0.1 0.1 0.1 0.1 0.1 0.1 0.1 0.9 14.4 15.0 15.0 15.0 15.0 15.0 15.0 15.0 15.0 15.0 15.0 15.0 15.0 15.0 15.0
0.9 1.1 1.2 3.1 1.7 1.2 0.8 2.9 1.5 3.8 2.7 3.0 4.8 2.2 1.9 2.5 10.5 14.8 8.0 0.8 0.3 0.1 0.1 0.1 0.1 0.1 0.1 0.1 0.1 0.1 0.1 0.1 0.1 0.1 0.1 0.2 1.7 7.6 15.0 15.0 15.0 15.0 15.0 15.0 15.0 15.0 15.0 15.0 15.0 15.0 15.0 15.0 15.0 15.0